CW3590 Weather Reports


time (UTC)temp
F
wind
direction
speed
knots
gust
knots
rain 1hr
in
rain 24hr
in
rain mn
in
humidity
%
barometer
mb
20260506222008 62 27 0.9 3.5 0.00 0.00 0.00 88 1010.9
20260506220006 62 304 1.7 5.2 0.00 0.00 0.00 88 1010.7
20260506214007 62 307 1.7 6.1 0.00 0.00 0.00 88 1011.1
20260506212006 62 289 1.7 6.1 0.00 0.00 0.00 87 1010.9
20260506211006 62 296 1.7 6.1 0.00 0.00 0.00 87 1010.8
20260506210006 62 299 1.7 7.0 0.00 0.00 0.00 87 1010.4
20260506205006 63 312 1.7 6.1 0.00 0.00 0.00 86 1010.4
20260506204007 63 308 1.7 5.2 0.00 0.00 0.00 86 1010.4
20260506203007 63 34 0.9 4.3 0.00 0.00 0.00 86 1010.1
20260506202007 63 311 0.9 4.3 0.00 0.00 0.00 86 1010.3
20260506201007 62 312 0.9 3.5 0.00 0.00 0.00 86 1010.6
20260506200006 62 26 0.9 5.2 0.00 0.00 0.00 87 1010.8
20260506195006 62 37 0.9 3.5 0.00 0.00 0.00 87 1010.9
20260506194006 62 354 1.7 3.5 0.00 0.00 0.00 87 1011.2
20260506191006 61 32 0.9 3.5 0.00 0.00 0.00 87 1010.9
20260506190006 61 38 1.7 7.0 0.00 0.00 0.00 87 1010.6
20260506185007 61 353 1.7 8.7 0.00 0.00 0.00 86 1010.3
20260506184006 61 34 1.7 5.2 0.00 0.00 0.00 86 1010.1
20260506183006 62 34 1.7 7.8 0.00 0.00 0.00 85 1009.7
20260506182007 62 62 2.6 10.4 0.00 0.00 0.00 85 1010.1
20260506181006 62 34 1.7 6.1 0.00 0.00 0.00 85 1010.1
20260506175006 62 58 1.7 6.1 0.00 0.00 0.00 85 1011.4
20260506174006 61 71 1.7 6.1 0.00 0.00 0.00 86 1011.1
20260506173006 60 67 0.9 4.3 0.00 0.00 0.00 88 1011.0
20260506172006 59 50 1.7 1.7 0.00 0.00 0.00 88 1011.5
20260506160010 60 301 1.7 5.2 0.00 0.00 0.00 85 1012.3
20260506155010 60 294 1.7 6.1 0.00 0.00 0.00 85 1011.9
20260506154010 61 325 0.9 4.3 0.00 0.00 0.00 85 1011.7
20260506153010 61 346 0.9 3.5 0.00 0.00 0.00 86 1011.3
20260506151011 61 31 0.9 6.1 0.00 0.00 0.00 86 1011.3
20260506150010 61 320 0.9 3.5 0.00 0.00 0.00 85 1011.3
20260506145009 61 306 0.9 3.5 0.00 0.00 0.00 85 1011.0
20260506144010 61 332 0.9 4.3 0.00 0.00 0.00 85 1010.9
20260506143010 61 314 1.7 6.1 0.00 0.00 0.00 85 1010.6
20260506142009 61 315 1.7 7.0 0.00 0.00 0.00 85 1010.4
20260506141010 61 325 1.7 7.0 0.00 0.00 0.00 85 1010.7
20260506140010 62 305 1.7 7.0 0.00 0.00 0.00 85 1010.4
20260506135010 62 312 2.6 6.1 0.00 0.00 0.00 85 1010.2
20260506134010 63 296 2.6 7.0 0.00 0.00 0.00 84 1010.1
20260506133009 63 343 1.7 7.0 0.00 0.00 0.00 84 1010.2
20260506132011 64 338 1.7 7.0 0.00 0.00 0.00 84 1010.0
20260506130010 65 316 0.9 7.0 0.00 0.00 0.00 83 1009.8
20260506125010 66 308 0.9 6.1 0.00 0.00 0.00 83 1009.5
20260506124010 67 313 0.9 6.1 0.00 0.00 0.00 83 1009.3
20260506123010 67 292 0.9 3.5 0.00 0.00 0.00 82 1009.1
20260506122010 68 290 0.9 4.3 0.00 0.00 0.00 82 1009.1
20260506121009 69 0 0.0 2.6 0.00 0.00 0.00 82 1008.9
20260506120010 70 0 0.0 1.7 0.00 0.00 0.00 81 1008.8
20260506114009 71 347 1.7 4.3 0.00 0.00 0.00 81 1008.5
20260506111009 74 329 0.9 0.9 0.00 0.00 0.00 87 1007.9
20260506110011 74 310 1.7 5.2 0.00 0.00 0.00 88 1007.7
20260506105009 75 252 0.9 5.2 0.00 0.00 0.00 90 1007.6
20260506104010 75 210 0.9 3.5 0.00 0.00 0.00 90 1007.4
20260506103010 75 213 0.0 4.3 0.00 0.00 0.00 90 1007.3
20260506102010 75 228 0.9 2.6 0.00 0.00 0.00 90 1007.2
20260506101009 75 210 0.9 3.5 0.00 0.00 0.00 90 1007.2
20260506095011 75 185 0.9 3.5 0.00 0.00 0.00 90 1006.9
20260506093009 75 204 0.9 5.2 0.00 0.00 0.00 90 1007.1
20260506092009 75 199 0.9 6.1 0.00 0.00 0.00 90 1007.0
20260506091009 75 189 0.9 5.2 0.00 0.00 0.00 90 1006.8
20260506090009 75 191 0.9 4.3 0.00 0.00 0.00 90 1007.0
20260506085010 75 164 0.9 7.8 0.00 0.00 0.00 90 1006.9
20260506084009 75 189 0.9 5.2 0.00 0.00 0.00 90 1006.8
20260506083010 75 172 1.7 2.6 0.00 0.00 0.00 90 1006.8
20260506082009 75 193 0.9 4.3 0.00 0.00 0.00 90 1006.8
20260506081009 75 227 0.9 3.5 0.00 0.00 0.00 90 1006.9
20260506073009 75 161 0.9 1.7 0.00 0.00 0.00 89 1007.0
20260506072009 75 155 0.9 2.6 0.00 0.00 0.00 89 1006.9
20260506071009 75 0 0.0 2.6 0.00 0.00 0.00 89 1006.9
20260506061009 75 155 0.9 2.6 0.00 0.00 0.00 88 1006.8
20260506051009 76 153 0.9 2.6 0.00 0.00 0.00 86 1006.8
20260506045009 76 178 0.9 4.3 0.00 0.00 0.00 85 1006.7
20260506044009 76 185 0.0 3.5 0.00 0.00 0.00 85 1006.7
20260506043009 76 207 0.9 2.6 0.00 0.00 0.00 85 1006.6
20260506042009 76 157 0.9 1.7 0.00 0.00 0.00 85 1006.5
20260506041009 77 146 0.9 3.5 0.00 0.00 0.00 85 1006.1
20260506040010 77 168 0.0 3.5 0.00 0.00 0.00 85 1006.0
20260506035009 77 0 0.0 2.6 0.00 0.00 0.00 85 1005.9
20260506034010 76 0 0.0 2.6 0.00 0.00 0.00 86 1005.9
20260506033009 77 0 0.0 2.6 0.00 0.00 0.00 85 1005.6
20260506032009 77 0 0.0 0.9 0.00 0.00 0.00 85 1005.4
20260506031009 77 0 0.0 0.9 0.00 0.00 0.00 85 1005.4
20260506030009 77 0 0.0 0.0 0.00 0.00 0.00 84 1005.5
20260506025009 77 0 0.0 3.5 0.00 0.00 0.00 84 1005.6
20260506024009 77 0 0.0 0.9 0.00 0.00 0.00 84 1005.2
20260506023009 78 0 0.0 1.7 0.00 0.00 0.00 83 1005.1
20260506022010 78 0 0.0 1.7 0.00 0.00 0.00 83 1005.3
20260506021009 78 0 0.0 0.0 0.00 0.00 0.00 83 1005.2
20260506015009 79 0 0.0 0.9 0.00 0.00 0.00 81 1005.0
20260506013008 80 0 0.0 1.7 0.00 0.00 0.00 80 1004.9
20260506012009 80 0 0.0 1.7 0.00 0.00 0.00 80 1004.8
20260506011009 80 0 0.0 0.9 0.00 0.00 0.00 79 1004.7
20260506010009 80 0 0.0 0.0 0.00 0.00 0.00 79 1004.5
20260506003009 81 199 0.9 3.5 0.00 0.00 0.00 77 1004.0
20260506002009 81 198 0.9 3.5 0.00 0.00 0.00 77 1003.9
20260506001009 82 185 0.9 5.2 0.00 0.00 0.00 76 1004.0
20260506000008 82 173 0.9 2.6 0.00 0.00 0.00 75 1004.0
20260505235009 82 190 0.9 3.5 0.00 0.00 0.00 75 1004.1
20260505234010 82 178 0.9 6.1 0.00 0.00 0.00 75 1004.0
20260505233009 82 194 0.9 5.2 0.00 0.00 0.00 75 1003.9
20260505231008 82 186 1.7 4.3 0.00 0.00 0.00 74 1003.8
20260505225008 83 165 2.6 6.1 0.00 0.00 0.00 73 1003.6
20260505224008 83 181 1.7 7.8 0.00 0.00 0.00 73 1003.6